Tracking 19644 objects as of 26-Apr-2019
HD Live streaming from Space Station
objects crossing your sky now

CZ-4 DEB

Track CZ-4 DEB now!
10-day predictions


NORAD ID: 26755
Int'l Code: 1999-057MC
Perigee: 621.3 km
Apogee: 710.7 km
Inclination: 98.3 °
Period: 97.9 minutes
Semi major axis: 7036 km
RCS: 0.0114 m2 (small)
Launch date: October 14, 1999
Source: People's Republic of China (PRC)
Launch site: Taiyaun Space Center, China (TSC)

Note: This is SATELLITE DEBRIS
aabbcc
Your satellite tracking list
Your tracking list is empty




NASA's NSSDC Master Catalog

Two Line Element Set (TLE):
1 26755U 99057MC  19115.34014175 +.00000605 +00000-0 +10519-3 0  9997
2 26755 098.3367 254.1887 0063576 013.8193 016.2121 14.70691037960994
Source of the keplerian elements: AFSPC